This is the latest recevied weather packets stored in our database for station/object K7LDN-13. If no packets are shown the sender has not sent any weather packets the latest 10 day(s).
| Time | Temp. | Humidity | Pressure | Rain* | Wind** | Luminosity | Snow |
|---|---|---|---|---|---|---|---|
| 1777673444 | 18.89° C | 23% | 1021.9 hPa | 0 mm | - | 607 W/m² | - |
| 1777673142 | 18.89° C | 23% | 1022 hPa | 0 mm | - | 621 W/m² | - |
| 1777672838 | 18.89° C | 23% | 1022 hPa | 0 mm | - | 633 W/m² | - |
| 1777672534 | 18.89° C | 23% | 1022 hPa | 0 mm | - | 646 W/m² | - |
| 1777672230 | 18.33° C | 22% | 1022 hPa | 0 mm | - | 659 W/m² | - |
| 1777671925 | 18.89° C | 24% | 1022.1 hPa | 0 mm | - | 666 W/m² | - |
| 1777671621 | 18.89° C | 23% | 1022.1 hPa | 0 mm | - | 675 W/m² | - |
| 1777671319 | 19.44° C | 23% | 1022.4 hPa | 0 mm | - | 686 W/m² | - |
| 1777671015 | 19.44° C | 23% | 1022 hPa | 0 mm | - | 699 W/m² | - |
| 1777670711 | 19.44° C | 23% | 1022.2 hPa | 0 mm | - | 707 W/m² | - |
| 1777670408 | 18.89° C | 22% | 1022.1 hPa | 0 mm | - | 722 W/m² | - |
| 1777670105 | 18.89° C | 23% | 1022.2 hPa | 0 mm | - | 736 W/m² | - |
| 1777669803 | 18.89° C | 22% | 1022.4 hPa | 0 mm | - | 750 W/m² | - |
| 1777669499 | 17.78° C | 23% | 1022.6 hPa | 0 mm | - | 762 W/m² | - |
| 1777669196 | 18.33° C | 24% | 1022.2 hPa | 0 mm | - | 770 W/m² | - |
| 1777668892 | 17.78° C | 24% | 1022.4 hPa | 0 mm | - | 782 W/m² | - |
| 1777668590 | 18.89° C | 23% | 1022.4 hPa | 0 mm | - | 797 W/m² | - |
| 1777668285 | 18.33° C | 24% | 1022.5 hPa | 0 mm | - | 803 W/m² | - |
| 1777667982 | 17.78° C | 22% | 1022.6 hPa | 0 mm | - | 810 W/m² | - |
| 1777667679 | 18.33° C | 22% | 1022.5 hPa | 0 mm | - | 817 W/m² | - |
| 1777667377 | 17.78° C | 22% | 1022.5 hPa | 0 mm | - | 821 W/m² | - |
| 1777667073 | 17.78° C | 24% | 1022.5 hPa | 0 mm | - | 827 W/m² | - |
| 1777666770 | 17.78° C | 23% | 1022.7 hPa | 0 mm | - | 835 W/m² | - |
| 1777666467 | 17.22° C | 25% | 1022.6 hPa | 0 mm | - | 839 W/m² | - |
| 1777666164 | 17.78° C | 22% | 1022.6 hPa | 0 mm | - | 843 W/m² | - |
* Rain latest hour (hover to see other rain measurements)
** Current wind speed in m/s (hover to see current wind gust speed)